DMSP 5D-2 F13 DEB, 40526

Orbit data source: Space-Track

DMSP 5D-2 F13 DEB, 40526 is space debris in SSO originally from a launch on Fri, 24 Mar 1995 UTC launched from the Air Force Western Test Range (AFWTR). Debris objects in space refer to the collection of defunct objects orbiting the Earth. Examples of debris include non-operational satellites, rocket bodies, and fragments generated from explosions, collisions, or faulty payload assembly.

Loading next visibility...
Identifier
40526, 1995-015DN
Orbit
SSO
Country
Flag of USUS
Related business
Manufacturer
Unknown
Mission
Spacecraft
Bus & Motor
Unknown
Mass
Unknown
Launch date (UTC)
1995-03-24 (31 years ago)
Launch vehicle
Unknown
Launch site
Air Force Western Test Range (AFWTR)
Object type
Payload
Rocket body
Debris
Shape & HBR
Unknown shape, 0.1 m
Radar Cross Section
Small (<0.1 m²)

Expand to show TLE details & history
Last TLE update: 3 days ago

TLE from 3 days ago
0 DMSP 5D-2 F13 DEB
1 40526U 95015DN  26236.06762621  .00004098  00000-0  11203-2 0  9996
2 40526  98.6125 283.0300 0025514 100.3583 260.0487 14.47600021595149
Epoch: 2026-08-24T01:37Z
TLE epoch observation values (Epoch: 2026-08-24T01:37:22.904Z)
Latitude
-0.00001°
Longitude
-73.67008°
Altitude
739.634 km
Speed
7.483 km/s
True Right ascension
18h 52m 07s
True Declination
0° 00' 00"
Sunlit
Object was in full shadow at epoch
Visualization orbit readout
Latitude
Unknown
Longitude
Unknown
Altitude
Unknown
Speed
Unknown
Apparent Right ascension
Unknown
Apparent Declination
Unknown
Sunlit
N/A
Visualization observer readout
Local Sidereal Time
11:13:03
Azimuth
Unknown
Elevation
Unknown
Doppler factor
Unknown
Orbital elements
Apogee altitude
748.752 km
Perigee altitude
712.478 km
Semi-major axis
7,108.752 km
Eccentricity
0.00255
Inclination
98.6125°
RAAN
283.03°
Arg. of periapsis
100.3583°
True anomaly
259.76089°
Mean anomaly
260.0487°
Eccentric anomaly
259.90478°
Mean motion
3.62121 °/min
Orbital period
99.41 mins
BSTAR
0.0011203
Loading maneuver chart data...
Computing Atmospheric mass density...

Documentation

Showing up to 5 results
|